Tracking 31027 objects as of 19-Jul-2025
HD Live streaming from Space Station
objects crossing your sky now

FENGYUN 2E DEB

Track FENGYUN 2E DEB now!


NORAD ID: 40987
Int'l Code: 2008-066D
Perigee: 34,991.2 km
Apogee: 36,652.6 km
Inclination: 9.5 °
Period: 1,437.5 minutes
Semi major axis: 42192 km
RCS: Unknown
Launch date: December 23, 2008
Source: People's Republic of China (PRC)
Launch site: Xichang Space Center, China (XSC)

Note: This is SATELLITE DEBRIS
Your satellite tracking list
COSMOS 628
Track 1 satellite(s)




NASA's NSSDC Master Catalog

Two Line Element Set (TLE):
1 40987U 08066D   25199.11750950 -.00000068  00000-0  00000-0 0  9997
2 40987   9.4872  47.4497 0196884  10.3249 350.1145  1.00171310 59119
Source of the keplerian elements: AFSPC